Location: Estes Par
(40.3770°N, 10.0000°W)
Time: 20:06:01
(UTC-06:00)

Envisat - Visible Passes

Search period start: 17 June 2018 00:00
Search period end: 27 June 2018 00:00
Orbit: 764 x 766 km, 98.2° (Epoch: 17 June)

Date Brightness Start Highest point End Pass type
(mag) Time Alt. Az. Time Alt. Az. Time Alt. Az.
19 Jun 5.3 14:58:01 10° SW 15:01:57 23° W 15:05:55 10° NW visible
21 Jun 5.7 15:25:41 10° WSW 15:27:47 12° W 15:29:54 10° WNW visible
22 Jun 5.0 14:46:22 10° SSW 14:50:42 28° W 14:55:04 10° NW visible
24 Jun 5.6 15:13:24 10° SW 15:16:30 16° W 15:19:37 10° NW visible
